Location: Newark
(34.9500°N, 139.9667°E)
Time: 05:42:22
(UTC+00:00)

Vanguard 2 Rocket - Pass Details

Date: 17 December 2019
Orbit: 554 x 3326 km, 32.9° (Epoch: 19 January)

Event Time Altitude Azimuth Distance (km) Brightness Sun altitude
Rises 09:17:15 0° 270° (W) 6,927 12.8 -21.2°
Reaches altitude 10° 09:22:23 10° 270° (W) 5,603 12.0 -22.2°
Maximum altitude 09:37:59 80° 186° (S) 1,882 8.3 -25.3°
Enters shadow 09:42:12 40° 106° (ESE) 2,149 8.3 -26.2°
Drops below altitude 10° 09:46:31 10° 101° (E) 3,252 - -27.0°
Sets 09:48:44 0° 100° (E) 3,957 - -27.5°
